Regional Weather Roundup
Issued by NWS

Home | Current Version | Previous Version | Graphics & Text | Print | Product List | Glossary On
Versions: 1 2 3 4 5 6 7 8 9 10 11 12 13 14 15 16 17 18 19 20 21 22 23 24 25 26 27 28 29 30 31 32 33 34 35 36 37 38 39 40 41 42 43 44 45 46 47 48 49 50
942
ASUS43 KLMK 201010
RWRKY
KENTUCKY REGIONAL WEATHER ROUNDUP
NATIONAL WEATHER SERVICE LOUISVILLE KY
500 AM EST MON FEB 20 2017

NOTE "FAIR" INDICATES FEW OR NO CLOUDS BELOW 12,000 FEET
WITH NO SIGNIFICANT WEATHER AND/OR OBSTRUCTIONS TO VISIBILITY.

KYZ001>023-026-027-061>063-070>075-201100-
WESTERN AND SOUTH CENTRAL KENTUCKY

CITY           SKY/WX    TMP DP  RH WIND       PRES   REMARKS
PADUCAH        MOCLDY    46  44  93 CALM      30.10R FOG
HENDERSON        N/A     43  37  81 E5        30.13R VSB 1/2
OWENSBORO      FOG       41  39  93 CALM      30.16R VSB 1
HOPKINSVILLE   PTCLDY    48  48 100 CALM      30.13R
BOWLING GREEN  FOG       42  41  96 CALM      30.16R VSB 1/4
GLASGOW        FOG      N/A N/A N/A CALM      30.15S VSB 1/2
$$

KYZ024-025-028>034-038-045-046-053-201100-
NORTH CENTRAL KENTUCKY

CITY           SKY/WX    TMP DP  RH WIND       PRES   REMARKS
LOUISVILLE/SDF FOG       42  40  92 CALM      30.17R VSB 1/16
LOUISVILLE/LOU FOG       39  37  92 CALM      30.18R VSB 1/4
FORT KNOX      FOG       36  36 100 CALM      30.14S VSB 1/4
$$

KYZ035>037-039>044-047>052-055>060-089>105-201100-
NORTHEAST KENTUCKY

CITY           SKY/WX    TMP DP  RH WIND       PRES   REMARKS
LEXINGTON      FOG       39  38  96 SE6       30.18R VSB 1/2 WCI  35
COVINGTON      FOG       39  39 100 E3        30.18S VSB 1/4
FRANKFORT      FOG       36  34  92 CALM      30.17R VSB 1/4
$$

KYZ054-064>069-076>088-106>120-201100-
SOUTHEAST KENTUCKY

CITY           SKY/WX    TMP DP  RH WIND       PRES   REMARKS
JACKSON        PTCLDY    47  42  83 SE5       30.17S
LONDON         CLOUDY    38  34  85 CALM      30.18R
SOMERSET       CLEAR     36  36 100 CALM      30.19R
MIDDLESBORO    FOG       37  37 100 CALM      30.21R VSB 1/4
MONTICELLO     FOG       32  32 100 NE9       30.19R VSB 1/4 WCI  24
$$





USA.gov is the U.S. government's official web portal to all federal, state and local government web resources and services.